STARLINK-4690 (53604 NORAD) Tracking and Keplerian Element Data

This shows tracking and keplerian element data for the satellite.

Feedback or suggestion? Click here.




ElementValue
Catalog53604
NameSTARLINK-4690
Epoch Orbit130
Epoch Day324.91667824
Epoch Year2022
RAAN247.5075
Inclination53.2185
Eccentricity0.000177
Argument of Perigee56.441
Mean Anonmoly30.3646
Mean Motion15.08839737
Decay Rate-0.00019981
L11 53604U 22104S 22324.91667824 -.00019981 00000+0 -12408-2 0 9999
L22 53604 53.2185 247.5075 0001770 56.4410 30.3646 15.08839737 1306



Live tracking and technical data element details for STARLINK-4690 (NORAD 53604). STARLINK-4690 can be tracked NOW for your location showing map with azimuth and elevation plus other details from your city location.







IsCatalogInMostPopularTable: catalog: 53604, numindb: 4
Update: records affected: 1



GetName: 53604 STARLINK-4690

Hit Count: updated at: Thu, 08 Dec 2022 09:02:50 GMT